Location: Newark
(49.3000°N, 9.4667°E)
Time: 11:05:54
(UTC+00:00)

S-56A Canister/Altair - Pass Details

Date: 27 May 2019
Orbit: 633 x 2499 km, 38.9° (Epoch: 18 June)

Event Time Altitude Azimuth Distance (km) Brightness Sun altitude
Exits shadow 23:45:03 24° 149° (SSE) 1,883 9.1 -19.1°
Drops below altitude 10° 23:50:26 10° 104° (ESE) 3,167 10.6 -19.0°
Sets 23:54:26 0° 92° (E) 4,489 11.5 -18.9°
